Location: Tyumen
(57.1527°N, 65.5323°E)
Time: 07:28:35
(UTC+05:00)

ISS - Pass Details

Date: 05 December 2021
Orbit: 413 x 422 km, 51.6° (Epoch: 27 January)

Event Time Altitude Azimuth Distance (km) Brightness Sun altitude
Rises 17:54:14 0° 269° (W) 2,390 1.6 -14.2°
Reaches altitude 10° 17:56:43 10° 252° (WSW) 1,520 0.5 -14.5°
Maximum altitude 17:59:14 19° 204° (SSW) 1,070 -1.2 -14.9°
Drops below altitude 10° 18:01:44 10° 156° (SSE) 1,510 -1.0 -15.2°
Enters shadow 18:03:16 - 143° (SE) 2,021 -0.5 -15.4°
